IRIDIUM 33 DEB, 34652

Orbit data source: Space-Track

IRIDIUM 33 DEB, 34652 is space debris in LEO originally from a launch on Sun, 14 Sep 1997 UTC launched from the Tyuratam Missile And Space Complex (TTMTR). The debris from Iridium 33, an American commercial communications satellite, has been tracked extensively since its accidental collision with the defunct Russian satellite Cosmos 2251 in 2009. This event, occurring at high speed in low Earth orbit (LEO), generated thousands of pieces of space debris, significantly increasing the risk of further collisions. The Iridium 33 debris cloud has impacted space traffic management and orbital debris mitigation strategies, making it a subject of ongoing study in space situational awareness.

Loading next visibility...
Identifier
34652, 1997-051KD
Orbit
LEO
Country
Flag of USUS
Related business
Manufacturer
Unknown
Mission
Spacecraft
Bus & Motor
Unknown
Mass
Unknown
Launch date (UTC)
1997-09-14 (28 years ago)
Launch vehicle
Unknown
Launch site
Tyuratam Missile And Space Complex (TTMTR)
Object type
Payload
Rocket body
Debris
Shape & HBR
Unknown shape, 0.1 m
Radar Cross Section
Small (<0.1 m²)

Expand to show TLE details & history
Last TLE update: 16 hours ago

TLE from 16 hours ago
0 IRIDIUM 33 DEB
1 34652U 97051KD  25348.93606338  .00003489  00000-0  68734-3 0  9997
2 34652  86.3312 339.0239 0025748 290.2679  99.3424 14.62082992885167
Epoch: 2025-12-14T22:27Z
TLE epoch observation values (Epoch: 2025-12-14T22:27:55.876Z)
Latitude
29.88405°
Longitude
-79.70046°
Altitude
693.347 km
Speed
7.511 km/s
True Right ascension
22h 44m 29s
True Declination
29° 44' 04"
Sunlit
Object was in daylight at epoch
Visualization orbit readout
Latitude
Unknown
Longitude
Unknown
Altitude
Unknown
Speed
Unknown
Apparent Right ascension
Unknown
Apparent Declination
Unknown
Sunlit
N/A
Visualization observer readout
Local Sidereal Time
13:23:48
Azimuth
Unknown
Elevation
Unknown
Doppler factor
Unknown
Orbital elements
Apogee altitude
701.565 km
Perigee altitude
665.201 km
Semi-major axis
7,061.52 km
Eccentricity
0.00257
Inclination
86.3312°
RAAN
339.0239°
Arg. of periapsis
290.2679°
True anomaly
99.63338°
Mean anomaly
99.3424°
Eccentric anomaly
99.48791°
Mean motion
3.6576 °/min
Orbital period
98.43 mins
BSTAR
0.00068734
Loading maneuver chart data...
Computing Atmospheric mass density...

Documentation

Showing up to 5 results
|